Year,Month,Day,Hour,Minute,Value (Times are PST for temperature in C)
2013,02,04,13,07,8.50
2013,02,04,13,08,8.50
2013,02,04,13,09,8.60
2013,02,04,13,10,8.60
2013,02,04,13,11,8.70
2013,02,04,13,12,8.70
2013,02,04,13,13,8.80
2013,02,04,13,14,8.80
2013,02,04,13,15,8.80
2013,02,04,13,16,8.90
2013,02,04,13,17,8.90
2013,02,04,13,18,8.90
2013,02,04,13,19,8.90
2013,02,04,13,20,9.00
2013,02,04,13,21,9.00
2013,02,04,13,22,9.10
2013,02,04,13,23,9.10
2013,02,04,13,24,9.10
2013,02,04,13,25,9.20
2013,02,04,13,26,9.20
2013,02,04,13,27,9.20
2013,02,04,13,28,9.20
2013,02,04,13,29,9.20
2013,02,04,13,30,9.30
2013,02,04,13,31,9.30
2013,02,04,13,32,9.30
2013,02,04,13,33,9.40
2013,02,04,13,34,9.40
2013,02,04,13,35,9.40
2013,02,04,13,36,9.40
2013,02,04,13,37,9.40
2013,02,04,13,38,9.50
2013,02,04,13,39,9.60
2013,02,04,13,40,9.60
2013,02,04,13,41,9.60
2013,02,04,13,42,9.60
2013,02,04,13,43,9.60
2013,02,04,13,44,9.50
2013,02,04,13,45,9.50
2013,02,04,13,46,9.40
2013,02,04,13,47,9.40
2013,02,04,13,48,9.30
2013,02,04,13,49,9.30
2013,02,04,13,50,9.40
2013,02,04,13,51,9.40
2013,02,04,13,52,9.40
2013,02,04,13,53,9.40
2013,02,04,13,54,9.40
2013,02,04,13,55,9.50
2013,02,04,13,56,9.50
2013,02,04,13,57,9.50
2013,02,04,13,58,9.50
2013,02,04,13,59,9.60
2013,02,04,14,00,9.60
2013,02,04,14,01,9.60
2013,02,04,14,02,9.60
2013,02,04,14,03,9.60
2013,02,04,14,04,9.60
2013,02,04,14,05,9.70
2013,02,04,14,06,9.60
2013,02,04,14,07,9.60
2013,02,04,14,08,9.60
2013,02,04,14,09,9.60
2013,02,04,14,10,9.60
2013,02,04,14,11,9.60
2013,02,04,14,12,9.50
2013,02,04,14,13,9.50
2013,02,04,14,14,9.40
2013,02,04,14,15,9.40
2013,02,04,14,16,9.40
2013,02,04,14,17,9.30
2013,02,04,14,18,9.20
2013,02,04,14,19,9.20
2013,02,04,14,20,9.10
2013,02,04,14,21,9.10
2013,02,04,14,22,9.10
2013,02,04,14,23,9.00
2013,02,04,14,24,9.00
2013,02,04,14,25,9.00
2013,02,04,14,26,9.00
2013,02,04,14,27,9.00
2013,02,04,14,28,9.00
2013,02,04,14,29,9.00
2013,02,04,14,30,9.00
2013,02,04,14,31,9.10
2013,02,04,14,32,9.00
2013,02,04,14,33,9.10
2013,02,04,14,34,9.10
2013,02,04,14,35,9.10
2013,02,04,14,36,9.10
2013,02,04,14,37,9.10
2013,02,04,14,38,9.10
2013,02,04,14,39,9.10
2013,02,04,14,40,9.10
2013,02,04,14,41,9.10
2013,02,04,14,42,9.10
2013,02,04,14,43,9.10
2013,02,04,14,44,9.10
2013,02,04,14,45,9.10
2013,02,04,14,46,9.10
2013,02,04,14,47,9.10
2013,02,04,14,48,9.10
2013,02,04,14,49,9.10
2013,02,04,14,50,9.10
2013,02,04,14,51,9.10
2013,02,04,14,52,9.10
2013,02,04,14,53,9.10
2013,02,04,14,54,9.10
2013,02,04,14,55,9.10
2013,02,04,14,56,9.10
2013,02,04,14,57,9.10
2013,02,04,14,58,9.10
2013,02,04,14,59,9.10
2013,02,04,15,00,9.10
2013,02,04,15,01,9.10
2013,02,04,15,02,9.10
2013,02,04,15,03,9.10
2013,02,04,15,04,9.00
2013,02,04,15,05,9.00
2013,02,04,15,06,9.00
2013,02,04,15,07,9.00
2013,02,04,15,08,9.10
2013,02,04,15,09,9.10
2013,02,04,15,10,9.10
2013,02,04,15,11,9.10
2013,02,04,15,12,9.10
2013,02,04,15,13,9.10
2013,02,04,15,14,9.00
2013,02,04,15,15,8.90
2013,02,04,15,16,8.90
2013,02,04,15,17,8.90
2013,02,04,15,18,8.90
2013,02,04,15,19,8.90
2013,02,04,15,20,8.90
2013,02,04,15,21,8.90
2013,02,04,15,22,8.90
2013,02,04,15,23,8.90
2013,02,04,15,24,8.90
2013,02,04,15,25,8.90
2013,02,04,15,26,8.90
2013,02,04,15,27,8.90
2013,02,04,15,28,8.90
2013,02,04,15,29,8.90
2013,02,04,15,30,8.90
2013,02,04,15,31,8.90
2013,02,04,15,32,8.90
2013,02,04,15,33,8.90
2013,02,04,15,34,8.90
2013,02,04,15,35,8.90
2013,02,04,15,36,8.90
2013,02,04,15,37,8.90
2013,02,04,15,38,8.90
2013,02,04,15,39,8.80
2013,02,04,15,40,8.80
2013,02,04,15,41,8.80
2013,02,04,15,42,8.80
2013,02,04,15,43,8.80
2013,02,04,15,44,8.80
2013,02,04,15,45,8.80
2013,02,04,15,46,8.80
2013,02,04,15,47,8.80
2013,02,04,15,48,8.70
2013,02,04,15,49,8.70
2013,02,04,15,50,8.70
2013,02,04,15,51,8.70
2013,02,04,15,52,8.60
2013,02,04,15,53,8.60
2013,02,04,15,54,8.60
2013,02,04,15,55,8.50
2013,02,04,15,56,8.50
2013,02,04,15,57,8.50
2013,02,04,15,58,8.50
2013,02,04,15,59,8.50
2013,02,04,16,00,8.50
2013,02,04,16,01,8.50
2013,02,04,16,02,8.50
2013,02,04,16,03,8.50
2013,02,04,16,04,8.50
2013,02,04,16,05,8.50
2013,02,04,16,06,8.50
